Location: Unspecified
(0.0000°N, 0.0000°E)
Time: 20:33:32
(UTC+02:00)

Cosmos 1833 Rocket - Visible Passes

Search period start: 27 April 2015 00:00
Search period end: 07 May 2015 00:00
Orbit: 834 x 839 km, 71.0° (Epoch: 27 April)

Date Brightness Start Highest point End Pass type
(mag) Time Alt. Az. Time Alt. Az. Time Alt. Az.
30 Apr 5.2 22:47:28 10° NNW 22:48:02 13° NNW 22:48:02 13° NNW visible
01 May 4.7 22:30:49 10° NNW 22:32:36 21° NNW 22:32:36 21° NNW visible
02 May 3.9 22:14:11 10° NNW 22:17:15 34° NNW 22:17:15 34° NNW visible
03 May 3.0 21:57:33 10° NNW 22:01:57 57° N 22:01:57 57° N visible
04 May 2.5 21:40:57 10° N 21:46:33 78° ENE 21:46:46 76° ESE visible
05 May 2.6 21:24:21 10° N 21:29:56 69° ENE 21:31:39 45° SE visible
06 May 2.7 21:07:47 10° N 21:13:18 62° ENE 21:16:35 25° SSE visible
